Find Local Weather

World > North America > United States > Louisiana

New Orleans, Louisiana Regional Weather

Lat: 29.97N, Lon: 90.08W
Wx Zone: LAZ062
Feedback

New Orleans, LA Regional Weather

Expires:201905261300;;488135
ASUS44 KLIX 261210
RWRLA 
LOUISIANA WEATHER ROUNDUP
NATIONAL WEATHER SERVICE NEW ORLEANS LA
700 AM CDT SUN MAY 26 2019

NOTE: "FAIR" INDICATES FEW OR NO CLOUDS BELOW 12,000 FEET WITH NO
      SIGNIFICANT WEATHER AND/OR OBSTRUCTIONS TO VISIBILITY.
      SKY/WX - SKY CONDITION AND SIGNIFICANT WEATHER.
      TMP - AIR TEMPERATURE.    DP   - DEWPOINT TEMPERATURE.
      RH  - RELATIVE HUMIDITY.  PRES - PRESSURE.
      HX  - HEAT INDEX.         WCI  - WIND CHILL INDEX.

*  THESE STATIONS ARE NOT NWS OR FAA STATIONS AND ARE NOT UNDER
   NWS QUALITY CONTROL.


LAZ040-048-061>063-065-066-069-261300-
SOUTHEAST LOUISIANA
  
CITY           SKY/WX    TMP DP  RH WIND       PRES   REMARKS
N.O. INTL ARPT FAIR      78  73  84 CALM      30.11R                  
6HR MIN TEMP:  74; 6HR MAX TEMP:  79;                                

N.O. LAKEFRONT FAIR      78  75  90 E3        30.12R                  
6HR MIN TEMP:  76; 6HR MAX TEMP:  78;                                

N.O. DOWNTOWN* FAIR      78  73  84 SE3       30.13R                  
6HR MIN TEMP:  78; 6HR MAX TEMP:  82;                                

RESERVE*       FAIR      75  73  93 CALM      30.12R FOG              
6HR MIN TEMP:  73; 6HR MAX TEMP:  76;                                

SLIDELL        PTSUNNY   69  65  86 CALM      30.12R                  
6HR MIN TEMP:  68; 6HR MAX TEMP:  73;                                

BATON ROUGE    FAIR      72  70  93 CALM      30.12R                  
6HR MIN TEMP:  70; 6HR MAX TEMP:  76;                                

BOOTHVILLE     FAIR      74  73  97 CALM      30.12R FOG              
6HR MIN TEMP:  72; 6HR MAX TEMP:  77;                                

BELLE CHASSE   FAIR      72  72 100 CALM      30.11R FOG              
6HR MIN TEMP:  70; 6HR MAX TEMP:  77;                                

BOGALUSA*      NOT AVBL                                               
GALLIANO*      FAIR      69  67  94 CALM      30.11R                  
6HR MIN TEMP:  67; 6HR MAX TEMP:  75;                                

NEW ROADS*       N/A     72  72 100 CALM      30.13R                  
GONZALES*      FAIR      70  70 100 CALM      30.11R FOG              
6HR MIN TEMP:  68; 6HR MAX TEMP:  74;                                

HAMMOND*       FAIR      70  68  94 CALM      30.13R                  
HOUMA*         SUNNY     72  72 100 CALM      30.11R                  
PORT FOURCHON* SUNNY     79  75  89 SE7       30.11R                  

$$


SKY/WX - Weather  TMP - Temperature  DP - Dew Point  RH - Relative Humidity
WIND - Wind Direction/Speed PRES - Barometric Pressure VSB - Visibility
WCI - Wind Chill Index E13G22 Wind - East Wind 13 mph/Gusts of 22 mph